Location: Richmond
(37.5540°N, 77.4610°W)
Time: 22:39:13
(UTC-04:00)

ISS - Visible Passes

Search period start: 24 July 2017 00:00
Search period end: 03 August 2017 00:00
Orbit: 400 x 408 km, 51.6° (Epoch: 25 July)

Date Brightness Start Highest point End Pass type
(mag) Time Alt. Az. Time Alt. Az. Time Alt. Az.
24 Jul -0.3 02:50:54 10° N 02:52:22 12° NNE 02:53:50 10° NE visible
24 Jul -3.4 04:26:08 10° NW 04:29:23 62° NE 04:32:37 10° ESE visible
24 Jul -3.8 21:04:27 10° SW 21:07:38 56° SE 21:10:50 10° ENE visible
24 Jul -0.9 22:41:58 10° WNW 22:44:20 18° NNW 22:46:42 10° NNE visible
25 Jul -2.1 03:34:00 10° NNW 03:37:00 33° NNE 03:39:59 10° E visible
25 Jul -2.6 05:10:43 10° WNW 05:13:20 22° SW 05:15:57 10° S visible
25 Jul -1.7 21:48:57 10° W 21:51:50 29° NNW 21:54:43 10° NNE visible
26 Jul -2.9 20:56:12 10° WSW 20:59:24 52° NW 21:02:35 10° NE visible
26 Jul -0.4 22:35:17 10° NW 22:36:28 11° NNW 22:37:39 10° N visible
27 Jul -0.7 21:41:43 10° WNW 21:43:50 16° NNW 21:45:58 10° NNE visible
28 Jul -1.3 20:48:32 10° W 20:51:16 24° NNW 20:53:59 10° NNE visible
29 Jul -0.4 21:35:18 10° NNW 21:35:55 10° NNW 21:36:32 10° N visible
01 Aug -0.3 23:48:21 10° NNW 23:48:34 11° NNW 23:48:34 11° NNW visible
02 Aug -0.9 22:56:29 10° N 22:57:49 12° NNE 22:57:49 12° NNE visible
